{"data":{"norad_id":39163,"intl_designator":"2013-022A","name":"EUTELSAT 7B","alt_names":[],"object_type":"PAYLOAD","status":"ACTIVE","operator":null,"country":"EUTE","launch_date":"2013-05-14","launch_site_code":"TYMSC","launch_vehicle":null,"mission":null,"orbit_class":"UNKNOWN","rcs_meters":64.9296,"size_class":null,"mass_kg":null,"dimensions":null,"purposes":["comms"],"wikipedia_slug":null,"has_3d_model":false,"image_url":null,"decayed_at":null,"tle_current":{"epoch":"2026-05-25T03:46:32.079072Z","epoch_age_seconds":61564,"freshness":"FRESH","line1":"1 39163U 13022A   26145.15731573  .00000046  00000+0  00000+0 0  9998","line2":"2 39163   0.0742  18.3473 0005406  12.8707 275.1501  1.00271445 47717","mean_motion":1.00271445,"eccentricity":0.0005406,"inclination_deg":0.0742,"raan_deg":18.3473,"arg_perigee_deg":12.8707,"mean_anomaly_deg":275.1501,"bstar":0,"rev_number":4771,"period_min":1436.1017735408,"perigee_km":35763.895970177,"apogee_km":35809.484581428,"semimajor_km":42164.827275802,"source":"CELESTRAK","updated_at":"2026-05-25T13:38:13.942992Z"}}}